Regional Weather Roundup
Issued by NWS Newport/Morehead, NC

Current Version | Previous Version | Graphics & Text | Print | Product List | Glossary On
Versions: 1 2 3 4 5 6 7 8 9 10 11 12 13 14 15 16 17 18 19 20 21 22 23 24 25 26 27 28 29 30 31 32 33 34 35 36 37 38 39 40 41 42 43 44 45 46 47 48 49 50
000 ASUS42 KMHX 212222 RWRMHX WEATHER ROUNDUP FOR EASTERN NORTH CAROLINA NATIONAL WEATHER SERVICE NEWPORT/MOREHEAD CITY NC 600 PM EDT SUN SEP 21 2014 NOTE: "FAIR" INDICATES FEW OR NO CLOUDS BELOW 12,000 FEET WITH NO SIGNIFICANT WEATHER AND/OR OBSTRUCTIONS TO VISIBILITY NCZ015>017-031-032-045>047-102-103-212300- NORTH COAST CITY SKY/WX TMP DP RH WIND PRES REMARKS EDENTON SUNNY 79 66 62 SW5 29.77S ELIZABETH CITY SUNNY 78 65 63 SW6 29.75R KITTY HAWK CLEAR 76 66 70 W7 29.75R MANTEO SUNNY 77 65 67 W7 29.77R $$ NCZ045>047-081-094-103-104-212300- CENTRAL COAST CITY SKY/WX TMP DP RH WIND PRES REMARKS FRISCO SUNNY 74 69 85 W9G17 29.79R SWANQUARTER N/A 79 N/A N/A W3G13 29.77S $$ NCZ095-097-098-100-101-212300- SOUTHERN COAST CITY SKY/WX TMP DP RH WIND PRES REMARKS BEAUFORT SUNNY 80 67 64 SW9 29.82R CEDAR ISLAND N/A 81 N/A N/A SW3G9 29.85R JACKSONVILLE SUNNY 82 63 52 SW6 29.82R NEWPORT NOT AVBL PINEY ISLAND CLEAR 81 63 54 SW8 29.81R WILMINGTON SUNNY 84 62 47 W9 29.84R $$ NCZ011>013-027>030-043-044-078>080-089-090>093-098-212300- COASTAL PLAIN CITY SKY/WX TMP DP RH WIND PRES REMARKS AHOSKIE SUNNY 75 67 74 CALM 29.77R CLINTON SUNNY 84 67 56 SW6 29.82S ELIZABETHTOWN SUNNY 84 64 50 SW5 29.84R GOLDSBORO SUNNY 84 69 59 CALM 29.79R GREENVILLE SUNNY 82 64 54 W6 29.82R HAVELOCK MOSUNNY 82 63 52 W10 29.82S KENANSVILLE SUNNY 80 64 57 SW3 29.83R KINSTON SUNNY 82 64 54 SW5 29.81S NEW BERN MOSUNNY 83 64 52 SW5 29.82R RICHLANDS SUNNY 82 64 54 SW5 29.83R ROANOKE RAPIDS NOT AVBL ROCKY MOUNT SUNNY 83 65 54 SW7 29.79R WASHINGTON SUNNY 80 65 60 SW7 29.79S WHITEVILLE SUNNY 83 65 55 CALM 29.85R $$ AMZ130-135-150-152-154-156-158-170-250-252-270-ANZ085-086-088-633-658-670-212300- MARINE OBSERVATIONS STATION/POSITION TIME TEMP WIND PRES WAVE SWELL AIR SEA DIR/SP/G HT/PER HT/PER (UTC) (F) (DEG/KT/KT) (MB) (FT/S) (FT/S) CHESAPEAKE LIGHT 2200 75 280/ 7/ 8 1007.0 BUOY 44014 2200 74 77 290/ 16/ 17 1005.6 6/ 9 5/ 9 DUCK 2200 77 75 240/ 13/ 16 1006.7 2E DUCK 2200 N/A 4/ 8 OREGON INLET 2200 78 75 250/ 7/ 9 1007.7 BUOY 44095 2200 74 N/A 6/ 8 2/11 20E OREGON INLET NOT AVBL HATTERAS CG NOT AVBL DIAMOND BUOY 2200 78 260/ 14/ 17 1008.5 6/ 9 5/ 9 CAPE LOOKOUT 2200 78 240/ 5/ 7 1009.8 BEAUFORT LAB 2200 81 75 230/ 4/ 6 1009.2 30 SE NEW RIVER 2200 81 83 250/ 14/ 16 1010.5 4/ 9 3/ 9 5 SE WRIGHTSVILL 2200 78 79 250/ 8/ 10 N/A BUOY 41002 2058 80 81 270/ 14/ 17 1012.7 10/ 8 8/ 8 BUOY 41004 2200 80 82 240/ 12/ 14 1012.3 4/ 7 3/ 7 $$

USA.gov is the U.S. government's official web portal to all federal, state and local government web resources and services.